sat.trackr.live / text

‹ back to catalog

STARLINK-36966

NORAD 68044 · 2026-041E

PAYLOAD ACTIVE UNKNOWN

§ Identity

Operator
Country
US
Launch date
2026-03-02
Launch site
AFETR
Launch vehicle
Mass (kg)
RCS (m²)

Purposes: comms

External: N2YO · Heavens-Above · Gunter

§ Orbital elements

Epoch: 2026-05-25T00:50:04.045056Z

Period
93.85 min
Inclination
53.1585°
Eccentricity
0.0001350
Mean motion
15.34401979 rev/d
Perigee alt
461.8 km
Apogee alt
463.6 km
Semi-major
6,840.8 km
B*
3.6431e-4
RAAN
53.3880°
Arg perigee
101.0745°
Mean anomaly
259.0409°
Rev number
1,310

§ Raw data

STARLINK-369661 68044U 26041E   26145.03476904  .00011953  00000+0  36431-3 0  99942 68044  53.1585  53.3880 0001350 101.0745 259.0409 15.34401979 13102

JSON: /api/v1/satellites/68044 · /tle

For live sub-satellite position, see the globe view (requires WebGL).

§ Visibility from observer

Set your observer location to see the next 7 days of passes ≥ 10°. The values pass through the URL so the page stays shareable.

No JS? Fill the form by hand. The geolocation button needs JavaScript.